Location: Heilbronn
(49.1548°N, 9.2780°E)
Time: 19:52:51
(UTC+02:00)

ISS - Pass Details

Date: 30 March 2017
Orbit: 399 x 409 km, 51.6° (Epoch: 29 March)

Event Time Altitude Azimuth Distance (km) Brightness Sun altitude
Rises 22:24:00 0° 263° (W) 2,313 0.7 -23.6°
Reaches altitude 10° 22:26:05 10° 267° (W) 1,457 -0.4 -23.9°
Enters shadow 22:28:00 31° 278° (W) 731 -2.1 -24.1°
